Date,TemperatureHighF,TemperatureAvgF,TemperatureLowF,DewpointHighF,DewpointAvgF,DewpointLowF,HumidityHigh,HumidityAvg,HumidityLow,PressureMaxIn,PressureMinIn,WindSpeedMaxMPH,WindSpeedAvgMPH,GustSpeedMaxMPH,PrecipitationSumIn
2013-1-31,8,4,1,4,0,-3,86,82,79,0.00,40.00,14,11,27,0.00
2013-2-1,6,0,-8,3,-8,-100,98,79,59,0.00,40.00,12,6,19,0.00
2013-2-2,15,7,4,7,4,0,99,86,58,0.00,40.00,6,2,9,0.00
2013-2-3,20,13,4,12,8,3,99,83,60,0.00,40.00,12,6,20,0.00
2013-2-4,19,14,9,13,9,2,99,83,51,0.00,40.00,6,4,11,0.00
2013-2-5,29,20,5,28,16,-100,99,92,83,0.00,40.00,16,6,25,0.00
2013-2-6,21,6,-1,19,-2,-100,99,98,94,0.00,40.00,4,1,7,0.00
2013-2-7,32,28,25,32,28,25,99,99,99,0.00,40.00,9,6,18,0.00
2013-2-8,29,21,7,25,15,-100,99,87,65,0.00,40.00,7,3,18,0.00
2013-2-9,28,20,4,28,20,4,99,99,97,0.00,40.00,10,6,19,0.00
2013-2-10,40,32,26,40,32,26,99,99,99,0.00,40.00,13,6,23,0.00
2013-2-11,37,30,24,37,29,23,99,96,91,0.00,40.00,22,14,34,0.00
2013-2-12,33,26,21,26,23,19,96,87,71,0.00,40.00,12,6,22,0.00
2013-2-13,41,30,21,34,18,-100,99,87,63,0.00,40.00,7,4,12,0.00
2013-2-14,35,33,23,35,29,18,99,87,67,0.00,40.00,15,7,24,0.00
2013-2-15,24,18,11,18,9,5,81,69,53,0.00,40.00,13,8,22,0.00
2013-2-16,19,13,2,10,1,-100,93,71,53,0.00,40.00,12,5,17,0.00
2013-2-17,26,13,-5,22,-4,-100,99,80,55,0.00,40.00,10,4,16,0.00
2013-2-18,44,33,22,36,30,22,99,88,70,0.00,40.00,19,8,30,0.00
2013-2-19,22,12,7,22,8,0,99,83,68,0.00,40.00,19,14,29,0.00
2013-2-20,25,13,4,11,6,0,91,74,55,0.00,40.00,13,7,21,0.00
2013-2-21,24,16,7,23,15,6,99,95,82,0.00,40.00,16,7,25,0.00
2013-2-22,32,26,22,32,26,22,99,99,98,0.00,40.00,13,-2,24,0.00
2013-2-23,32,27,21,27,24,20,99,88,68,0.00,40.00,9,6,14,0.00
2013-2-24,41,26,9,27,16,-100,99,82,51,0.00,40.00,6,2,7,0.00
2013-2-25,39,29,19,29,26,19,99,89,67,0.00,40.00,4,2,8,0.00
2013-2-26,36,30,24,31,28,24,99,92,78,0.00,40.00,19,11,34,0.00
2013-2-27,34,31,29,33,31,29,99,98,95,0.00,40.00,12,6,19,0.00
2013-2-28,33,31,27,32,28,21,99,90,76,0.00,40.00,11,6,19,0.00
2013-3-1,30,25,18,23,20,15,93,79,62,0.00,40.00,12,5,19,0.00
2013-3-2,31,20,10,15,11,7,98,73,38,0.00,40.00,9,3,15,0.00
2013-3-3,34,20,4,15,9,3,99,69,34,0.00,40.00,5,2,7,0.00
2013-3-4,30,23,16,26,19,11,97,84,67,0.00,40.00,12,7,21,0.00
2013-3-5,28,26,24,28,26,24,99,99,97,0.00,40.00,11,7,17,0.00
2013-3-6,34,27,16,28,24,15,99,92,75,0.00,40.00,11,6,19,0.00
2013-3-7,38,23,8,23,17,7,99,81,49,0.00,40.00,6,2,9,0.00
2013-3-8,41,28,15,30,24,14,99,85,59,0.00,40.00,9,5,16,0.00
2013-3-9,41,36,32,38,34,29,99,94,88,0.00,40.00,11,-4,21,0.00
2013-3-10,37,36,33,37,36,33,99,99,99,0.00,40.00,12,6,20,0.00
2013-3-11,34,31,30,34,31,30,99,99,99,0.00,40.00,7,5,12,0.00
2013-3-13,33,27,18,17,13,11,96,58,41,0.00,40.00,13,8,21,0.00
2013-3-14,37,27,16,33,25,16,99,93,76,0.00,40.00,7,3,14,0.00
2013-3-15,35,32,28,35,32,28,99,99,99,0.00,40.00,12,3,20,0.00
2013-3-16,31,26,20,30,22,17,99,87,69,0.00,40.00,12,7,21,0.00
2013-3-17,28,21,11,20,14,9,91,76,59,0.00,40.00,12,7,19,0.00
2013-3-18,33,23,16,32,22,14,99,97,91,0.00,40.00,17,7,28,0.00
2013-3-19,28,20,12,14,11,8,94,71,47,0.00,40.00,18,15,31,0.00
2013-3-20,21,15,8,8,4,0,74,63,54,0.00,40.00,17,11,28,0.00
2013-3-21,30,18,8,13,9,4,93,69,45,0.00,40.00,9,5,16,0.00
2013-3-22,37,22,8,19,13,7,99,72,43,0.00,40.00,7,2,11,0.00
2013-3-23,42,29,17,24,20,16,99,72,45,0.00,40.00,7,2,11,0.00
2013-3-24,33,30,28,31,27,25,99,91,80,0.00,40.00,12,6,20,0.00
2013-3-25,35,29,23,27,24,21,97,82,70,0.00,40.00,10,7,19,0.00
2013-3-26,38,34,28,30,25,22,87,70,54,0.00,40.00,12,6,16,0.00
2013-3-27,44,36,31,29,25,21,83,67,43,0.00,40.00,6,3,14,0.00
2013-3-28,48,35,22,27,23,21,99,67,37,0.00,40.00,5,2,10,0.00
2013-3-29,53,36,23,33,25,22,99,71,31,0.00,40.00,5,1,9,0.00
2013-3-30,51,43,34,45,35,-100,99,78,60,0.00,40.00,11,-4,20,0.00
2013-3-31,43,38,32,40,34,17,99,87,48,0.00,40.00,16,8,30,0.00
2013-4-1,34,29,24,21,15,12,71,57,41,0.00,40.00,17,10,24,0.00
2013-4-2,37,30,24,18,16,13,74,55,36,0.00,40.00,13,-4,22,0.00
2013-4-3,46,35,21,24,18,12,94,54,28,0.00,40.00,8,3,13,0.00
2013-4-4,54,44,36,37,28,21,74,54,44,0.00,40.00,12,8,22,0.00
2013-4-5,48,39,29,35,27,23,98,64,39,0.00,40.00,11,5,19,0.00
2013-4-6,58,45,34,53,36,22,99,71,53,0.00,40.00,12,9,24,0.00
2013-4-7,50,42,36,39,37,36,99,83,61,0.00,40.00,16,8,26,0.00
2013-4-8,52,41,38,45,40,36,99,94,78,0.00,40.00,7,5,15,0.00
2013-4-9,40,38,37,40,37,36,99,98,91,0.00,40.00,15,7,24,0.00
2013-4-10,35,34,34,34,34,34,99,99,99,0.00,40.00,11,8,19,0.00
2013-4-13,37,35,33,31,29,27,96,82,67,0.00,40.00,9,7,18,0.00
2013-4-19,36,36,36,28,28,28,72,72,71,0.00,40.00,17,16,32,0.00
2013-4-24,53,50,45,33,28,26,61,44,36,0.00,40.00,14,10,30,0.00
2013-4-25,49,48,47,32,31,30,54,51,48,0.00,40.00,7,5,13,0.00
2013-4-26,71,59,44,49,40,27,71,50,38,0.00,40.00,17,9,29,0.00
2013-4-27,69,60,50,54,50,48,99,72,52,0.00,40.00,11,6,18,0.00
2013-4-28,74,68,51,52,45,43,92,47,35,0.00,40.00,7,4,12,0.00
2013-4-29,72,64,59,61,57,49,98,78,60,0.00,40.00,13,6,22,0.00
2013-4-30,85,76,60,63,59,56,98,62,37,0.00,40.00,20,11,34,0.00
2013-5-6,78,72,59,46,43,42,62,36,30,0.00,40.00,6,3,11,0.00
2013-5-7,79,66,48,53,44,38,99,52,23,0.00,40.00,7,3,16,0.00
2013-5-8,83,68,48,55,48,44,96,53,27,0.00,40.00,8,3,14,0.00
2013-5-9,67,64,61,60,58,54,97,81,63,0.00,40.00,3,2,6,0.00
2013-5-11,51,44,42,34,20,-100,74,51,43,0.00,40.00,15,12,35,0.00
2013-5-12,54,42,36,34,29,22,78,62,29,0.00,40.00,13,8,24,0.00
2013-5-13,40,36,34,33,32,31,92,86,73,0.00,40.00,2,1,2,0.00
2013-5-14,59,59,58,52,49,46,77,70,61,0.00,40.00,6,6,16,0.00
2013-5-15,75,71,66,61,56,49,61,58,55,0.00,40.00,6,5,11,0.00
2013-5-17,57,51,49,50,47,39,99,89,51,0.00,40.00,7,5,12,0.00
2013-5-18,69,69,69,67,67,67,95,95,95,0.00,40.00,4,4,9,0.00
2013-5-19,78,72,63,62,61,61,99,71,55,0.00,40.00,7,4,11,0.00
2013-7-3,72,69,63,65,63,61,99,82,70,0.00,40.00,7,3,9,0.00
2013-7-4,85,72,58,66,60,57,99,72,42,0.00,40.00,9,4,16,0.00
2013-7-5,86,75,60,68,64,59,99,71,42,0.00,40.00,10,5,22,0.00
2013-7-6,88,76,69,70,57,-100,92,77,48,0.00,40.00,10,4,17,0.00
2013-7-7,90,80,70,77,72,69,98,80,55,0.00,40.00,9,4,19,0.00
2013-7-8,91,80,73,78,73,-100,99,86,60,0.00,40.00,9,6,16,0.00
2013-7-9,86,77,71,80,62,-100,99,91,70,0.00,40.00,11,5,26,0.00
2013-7-10,81,73,66,74,52,-100,96,67,43,0.00,40.00,17,7,23,0.00
2013-7-11,84,71,57,65,51,-100,99,73,41,0.00,40.00,5,2,9,0.00
2013-7-12,83,71,59,65,61,57,99,75,41,0.00,40.00,9,4,15,0.00
2013-7-13,82,72,62,68,61,-100,99,79,54,0.00,40.00,9,4,19,0.00
2013-7-14,89,76,59,73,66,59,99,75,47,0.00,40.00,9,4,16,0.00
2013-7-15,90,78,67,77,69,-100,99,83,60,0.00,40.00,5,-7,9,0.00
2013-7-16,92,83,73,79,65,-100,99,82,59,0.00,40.00,9,4,14,0.00
2013-7-17,96,86,76,78,69,-100,99,73,47,0.00,40.00,11,5,17,0.00
2013-7-18,93,84,78,78,40,-100,97,79,51,0.00,40.00,11,6,19,0.00
2013-7-19,92,84,76,76,63,-100,83,67,42,0.00,40.00,18,9,29,0.00
2013-7-20,87,74,63,69,36,-100,99,71,43,0.00,40.00,7,4,13,0.00
2013-7-21,70,65,61,67,63,58,99,94,78,0.00,40.00,10,5,14,0.00
2013-7-22,87,72,60,77,66,-100,99,86,66,0.00,40.00,7,4,18,0.00
2013-7-23,73,69,61,69,54,-100,93,70,52,0.00,40.00,10,6,22,0.00
2013-7-24,75,65,51,60,46,-100,99,71,43,0.00,40.00,6,2,11,0.00
2013-7-25,79,67,57,71,55,-100,99,89,66,0.00,40.00,9,5,18,0.00
2013-7-26,79,70,60,71,53,-100,99,79,43,0.00,40.00,14,8,26,0.00
2013-7-27,62,55,50,55,38,-100,99,86,64,0.00,40.00,12,7,19,0.00
2013-7-28,67,59,51,58,53,50,99,82,61,0.00,40.00,11,7,22,0.00
2013-7-29,77,66,54,63,55,-100,99,76,51,0.00,40.00,7,3,11,0.00
2013-7-30,77,67,58,66,61,57,99,82,57,0.00,40.00,7,4,12,0.00
2013-7-31,81,70,64,69,50,-100,99,87,58,0.00,40.00,11,4,19,0.00
2013-8-1,80,70,58,65,56,-100,99,70,40,0.00,40.00,11,5,18,0.00
2013-8-2,83,71,61,67,59,53,99,69,37,0.00,40.00,11,5,21,0.00
2013-8-3,78,68,54,59,36,-100,99,65,37,0.00,40.00,11,4,18,0.00
2013-8-4,75,65,53,61,55,50,99,75,42,0.00,40.00,4,1,7,0.00
2013-8-5,75,64,54,67,61,53,99,92,72,0.00,40.00,9,4,15,0.00
2013-8-6,83,73,65,73,68,64,99,86,59,0.00,40.00,9,4,17,0.00
2013-8-7,75,67,62,66,53,-100,99,95,68,0.00,40.00,11,4,16,0.00
2013-8-8,80,72,56,63,48,-100,97,61,41,0.00,40.00,6,3,11,0.00
2013-8-9,82,72,63,64,45,-100,99,69,39,0.00,40.00,11,5,18,0.00
2013-8-10,76,66,55,60,35,-100,99,71,40,0.00,40.00,10,3,15,0.00
2013-8-11,71,63,55,68,62,55,99,98,91,0.00,40.00,6,2,11,0.00
2013-8-12,80,69,61,69,62,57,99,80,46,0.00,40.00,11,3,17,0.00
2013-8-13,71,62,53,60,50,-100,99,69,43,0.00,40.00,7,3,13,0.00
2013-8-14,76,62,46,60,52,46,99,75,42,0.00,40.00,6,2,12,0.00
2013-8-15,80,63,57,60,45,-100,99,68,33,0.00,40.00,9,3,16,0.00
2013-8-16,83,66,53,61,51,-100,99,70,32,0.00,40.00,6,2,9,0.00
2013-8-17,84,68,53,62,57,53,99,73,36,0.00,40.00,6,2,9,0.00
2013-8-18,83,70,53,63,55,-100,99,72,39,0.00,40.00,6,2,12,0.00
2013-8-19,83,68,58,68,54,-100,99,77,48,0.00,40.00,11,5,20,0.00
2013-8-20,87,75,62,70,66,-100,99,76,52,0.00,40.00,9,5,24,0.00
2013-8-21,90,80,73,77,73,69,99,80,59,0.00,40.00,14,7,24,0.00
2013-8-22,83,73,65,75,65,54,99,81,37,0.00,40.00,11,3,17,0.00
2013-8-23,84,71,58,66,60,55,99,73,40,0.00,40.00,8,3,14,0.00
2013-8-24,84,73,57,73,64,-100,97,76,56,0.00,40.00,10,5,17,0.00
2013-8-25,92,82,74,75,73,70,96,77,54,0.00,40.00,13,8,24,0.00
2013-8-26,92,82,75,81,75,68,94,78,64,0.00,40.00,11,6,19,0.00
2013-8-27,94,83,78,79,76,75,93,81,55,0.00,40.00,11,6,18,0.00
2013-8-28,87,80,73,74,73,72,98,79,63,0.00,40.00,4,3,9,0.00
2013-8-29,90,78,65,76,72,65,99,84,59,0.00,40.00,7,3,13,0.00
2013-8-30,89,80,73,79,73,69,99,81,59,0.00,40.00,10,6,17,0.00
2013-8-31,86,74,62,69,65,60,99,76,45,0.00,40.00,7,3,16,0.00
2013-9-1,86,74,67,75,66,57,99,79,43,0.00,40.00,13,6,22,0.00
2013-9-2,70,64,56,64,56,51,99,77,51,0.00,40.00,8,5,19,0.00
2013-9-3,77,62,45,59,52,45,99,76,42,0.00,40.00,9,2,13,0.00
2013-9-4,85,68,54,68,60,53,99,78,45,0.00,40.00,9,2,14,0.00
2013-9-5,81,69,60,67,60,56,99,78,44,0.00,40.00,11,5,16,0.00
2013-9-6,88,71,54,69,61,53,99,73,46,0.00,40.00,9,4,16,0.00
2013-9-7,93,79,71,73,67,-100,90,69,50,0.00,40.00,11,5,17,0.00
2013-9-8,72,68,62,71,66,60,99,93,84,0.00,40.00,13,8,22,0.00
2013-9-9,91,79,64,77,71,64,99,77,58,0.00,40.00,9,6,17,0.00
2013-9-10,92,84,76,71,67,64,70,58,42,0.00,40.00,13,8,25,0.00
2013-9-11,85,76,69,70,66,61,93,71,44,0.00,40.00,9,4,17,0.00
2013-9-12,72,64,58,62,54,46,99,73,45,0.00,40.00,12,6,26,0.00
2013-9-13,66,55,44,50,42,35,99,68,35,0.00,40.00,7,3,15,0.00
2013-9-14,73,57,41,54,37,-100,99,70,39,0.00,40.00,9,3,17,0.00
2013-9-15,64,58,55,60,56,54,99,93,73,0.00,40.00,9,5,16,0.00
2013-9-16,65,54,44,52,45,41,99,76,42,0.00,40.00,9,4,15,0.00
2013-9-17,66,54,40,59,50,39,99,87,62,0.00,40.00,8,3,14,0.00
2013-9-18,72,61,59,71,60,58,99,98,97,0.00,40.00,6,4,12,0.00
2013-9-19,83,74,68,75,72,68,99,92,78,0.00,40.00,8,5,20,0.00
2013-9-20,68,64,56,68,60,53,99,90,64,0.00,40.00,14,7,21,0.00
2013-9-21,60,54,47,55,47,-100,99,82,60,0.00,40.00,12,6,17,0.00
2013-9-22,65,52,38,49,45,38,99,80,50,0.00,40.00,7,3,12,0.00
2013-9-23,69,55,43,55,49,43,99,84,53,0.00,40.00,9,5,19,0.00
2013-9-24,72,57,44,59,50,44,99,81,45,0.00,40.00,10,4,14,0.00
2013-9-25,69,56,45,60,51,44,99,87,54,0.00,40.00,7,2,14,0.00
2013-9-26,76,58,45,63,53,45,99,86,49,0.00,40.00,8,-6,15,0.00
2013-9-27,81,64,50,58,53,50,99,73,38,0.00,40.00,10,4,20,0.00
2013-9-28,77,62,53,68,57,-100,99,84,56,0.00,40.00,16,7,30,0.00
2013-9-29,73,56,43,57,48,43,99,80,39,0.00,40.00,7,-8,13,0.00
2013-9-30,72,60,48,53,48,44,99,69,37,0.00,40.00,12,6,24,0.00
2013-10-1,76,65,55,55,54,51,95,70,41,0.00,40.00,7,2,11,0.00
2013-10-2,76,60,43,53,46,37,99,68,27,0.00,40.00,7,-7,14,0.00
2013-10-3,73,63,57,71,61,50,99,93,72,0.00,40.00,8,3,12,0.00
2013-10-4,61,59,58,60,59,57,99,99,99,0.00,40.00,11,6,17,0.00
2013-10-5,69,63,57,69,62,54,99,99,87,0.00,40.00,15,6,25,0.00
2013-10-6,58,51,42,54,42,35,99,77,42,0.00,40.00,7,3,11,0.00
2013-10-7,67,54,45,49,45,39,99,78,38,0.00,40.00,11,6,18,0.00
2013-10-8,76,58,39,52,44,39,99,67,32,0.00,40.00,11,4,22,0.00
2013-10-9,73,61,49,52,49,46,99,69,39,0.00,40.00,9,4,18,0.00
2013-10-10,74,57,43,52,47,42,99,77,38,0.00,40.00,9,3,16,0.00
2013-10-11,74,61,49,59,54,49,99,82,54,0.00,40.00,12,6,27,0.00
2013-10-12,68,61,47,60,49,-100,90,67,41,0.00,40.00,18,7,27,0.00
2013-10-13,62,50,40,43,34,-100,99,69,34,0.00,40.00,10,4,21,0.00
2013-10-14,60,47,32,45,39,32,99,78,49,0.00,40.00,13,5,22,0.00
2013-10-15,58,52,46,58,49,44,99,91,69,0.00,40.00,11,-3,23,0.00
2013-10-16,51,49,47,49,48,43,98,94,84,0.00,40.00,7,4,14,0.00
2013-10-17,57,46,35,47,38,35,99,80,45,0.00,40.00,7,2,13,0.00
2013-10-18,48,45,38,46,41,36,99,87,66,0.00,40.00,15,5,24,0.00
2013-10-19,53,41,31,43,32,-100,99,85,44,0.00,40.00,13,4,21,0.00
2013-10-20,48,39,30,46,38,30,99,97,90,0.00,40.00,11,3,18,0.00
2013-10-21,42,37,32,36,27,21,93,67,49,0.00,40.00,15,10,27,0.00
2013-10-22,48,36,28,31,28,23,98,73,44,0.00,40.00,9,5,17,0.00
2013-10-23,41,34,28,32,29,25,99,82,54,0.00,40.00,9,-14,21,0.00
2013-10-24,45,37,33,29,26,23,82,65,44,0.00,40.00,12,8,23,0.00
2013-10-25,52,42,31,31,29,26,93,63,40,0.00,40.00,14,7,35,0.00
2013-10-26,51,46,41,38,30,-100,75,54,44,0.00,40.00,19,11,37,0.00
2013-10-27,57,42,28,33,30,27,99,67,33,0.00,40.00,14,5,24,0.00
2013-10-28,42,38,34,34,29,-100,97,75,60,0.00,40.00,12,6,20,0.00
2013-10-29,50,40,35,42,34,28,99,80,68,0.00,40.00,9,5,16,0.00
2013-10-30,54,49,41,54,49,41,99,99,99,0.00,40.00,10,-8,16,0.00
2013-10-31,56,52,44,56,52,43,99,99,99,0.00,40.00,11,5,19,0.00
2013-11-1,47,44,40,45,41,39,99,92,81,0.00,40.00,15,7,23,0.00
2013-11-2,45,39,30,39,34,-100,99,84,59,0.00,40.00,10,5,16,0.00
2013-11-3,50,39,25,38,30,25,99,75,47,0.00,40.00,10,5,21,0.00
2013-11-4,51,48,44,48,41,35,99,78,65,0.00,40.00,14,8,28,0.00
2013-11-5,50,46,35,50,44,34,99,95,68,0.00,40.00,6,3,10,0.00
2013-11-6,50,39,33,50,31,19,99,76,41,0.00,40.00,14,9,27,0.00
2013-11-7,39,34,29,31,29,27,98,84,66,0.00,40.00,9,4,15,0.00
2013-11-8,44,35,25,35,29,25,99,81,55,0.00,40.00,11,5,22,0.00
2013-11-9,49,45,39,42,34,-100,88,69,56,0.00,40.00,19,12,38,0.00
2013-11-10,49,42,38,30,29,27,70,59,44,0.00,40.00,15,8,24,0.00
2013-11-11,43,31,22,36,22,10,99,71,51,0.00,40.00,12,8,22,0.00
2013-11-12,29,22,16,15,11,10,77,63,45,0.00,40.00,11,7,17,0.00
2013-11-13,45,32,19,23,17,13,82,56,39,0.00,40.00,12,-3,27,0.00
2013-11-14,50,41,34,29,24,15,58,50,40,0.00,40.00,11,6,23,0.00
2013-11-15,54,43,31,38,33,28,92,68,47,0.00,40.00,7,3,11,0.00
2013-11-16,60,46,38,59,44,-100,99,95,85,0.00,40.00,11,8,24,0.00
2013-11-17,60,49,39,59,47,33,99,93,69,0.00,40.00,25,0,44,0.00
2013-11-18,39,33,26,33,24,22,85,71,63,0.00,40.00,21,13,36,0.00
2013-11-19,41,31,20,29,20,-100,99,76,46,0.00,40.00,9,5,19,0.00
2013-11-20,40,37,35,36,31,27,99,80,61,0.00,40.00,11,7,22,0.00
2013-11-21,41,38,33,40,37,33,99,98,94,0.00,40.00,11,3,18,0.00
2013-11-22,35,29,26,33,20,11,99,72,40,0.00,40.00,12,-2,21,0.00
2013-11-23,27,16,10,18,5,-100,81,61,46,0.00,40.00,16,10,24,0.00
2013-11-24,27,18,6,9,3,-100,90,59,35,0.00,40.00,13,6,29,0.00
2013-11-25,35,30,24,29,21,5,95,73,42,0.00,40.00,12,-3,30,0.00
2013-11-26,35,26,13,28,14,3,80,62,45,0.00,40.00,17,8,27,0.00
2013-11-27,28,20,11,15,10,4,89,66,46,0.00,40.00,10,6,17,0.00
2013-11-28,30,25,22,16,14,12,79,62,53,0.00,40.00,11,4,18,0.00
2013-11-29,32,22,9,21,16,9,99,81,53,0.00,40.00,9,3,16,0.00
2013-11-30,46,36,29,31,26,-100,84,68,49,0.00,40.00,12,5,20,0.00
2013-12-1,40,32,25,30,27,23,99,82,53,0.00,40.00,4,2,7,0.00
2013-12-2,38,30,21,34,28,20,99,95,81,0.00,40.00,10,4,17,0.00
2013-12-3,35,34,33,35,34,33,99,99,99,0.00,40.00,10,7,17,0.00
2013-12-4,33,33,33,33,33,33,99,99,99,0.00,40.00,7,6,11,0.00
2013-12-6,11,8,4,-1,-1,-2,77,67,58,0.00,40.00,9,6,14,0.00
2013-12-7,14,5,-1,-1,-5,-100,82,65,40,0.00,40.00,9,4,16,0.00
2013-12-8,13,10,4,11,5,-2,95,82,65,0.00,40.00,9,4,13,0.00
2013-12-9,16,8,-2,11,2,-8,96,77,55,0.00,40.00,17,8,30,0.00
2013-12-10,16,8,-3,10,1,-8,86,72,55,0.00,40.00,17,8,29,0.00
2013-12-11,13,4,-3,12,-3,-11,93,71,49,0.00,40.00,13,7,21,0.00
2013-12-12,22,12,-3,11,2,-9,77,67,54,0.00,40.00,10,5,18,0.00
2013-12-13,21,18,14,14,11,5,87,74,64,0.00,40.00,12,6,17,0.00
2013-12-14,23,18,15,18,13,-100,91,84,69,0.00,40.00,10,5,17,0.00
2013-12-15,16,8,1,12,-2,-10,83,66,47,0.00,40.00,14,10,22,0.00
2013-12-16,14,6,-3,13,1,-10,94,79,60,0.00,40.00,4,2,12,0.00
2013-12-17,33,25,15,26,19,10,99,80,58,0.00,40.00,20,10,33,0.00
2013-12-18,36,24,7,27,14,2,87,66,44,0.00,40.00,10,5,21,0.00
2013-12-19,32,26,21,27,18,-100,97,86,75,0.00,40.00,14,7,23,0.00
2013-12-20,23,21,19,22,20,18,98,97,97,0.00,40.00,11,4,17,0.00
2013-12-21,26,24,22,26,22,-100,98,97,95,0.00,40.00,9,3,14,0.00
2013-12-22,25,23,21,24,22,21,98,96,87,0.00,40.00,9,3,14,0.00
2013-12-23,23,11,-1,22,8,-3,98,90,77,0.00,40.00,12,-13,17,0.00
2013-12-24,14,2,-14,8,-3,-100,97,85,71,0.00,40.00,9,3,13,0.00
2013-12-25,23,16,8,22,15,8,98,94,86,0.00,40.00,8,4,15,0.00
2013-12-26,24,19,13,20,16,10,93,86,76,0.00,40.00,7,2,11,0.00
2013-12-27,37,25,6,30,21,6,99,85,63,0.00,40.00,12,4,21,0.00
2013-12-28,45,36,26,32,27,-100,99,76,50,0.00,40.00,9,5,17,0.00
2013-12-29,40,18,0,33,12,-8,99,78,66,0.00,40.00,17,11,28,0.00
2013-12-30,4,0,-12,-1,-7,-16,89,70,49,0.00,40.00,5,2,9,0.00
2013-12-31,8,3,-4,0,-2,-10,90,79,67,0.00,40.00,7,4,12,0.00
2014-1-1,8,2,-6,-3,-6,-11,78,67,53,0.00,40.00,9,4,12,0.00
2014-1-2,11,5,-9,2,-3,-12,87,70,48,0.00,40.00,8,3,17,0.00